Location: Allaines
(49.9632°N, 2.9458°E)
Time: 05:35:05
(UTC+00:00)

X-37B - Pass Details

Date: 27 June 2021
Orbit: 383 x 392 km, 45.0° (Epoch: 01 July)

Event Time Altitude Azimuth Distance (km) Brightness Sun altitude
Rises 23:01:09 0° 266° (W) 2,257 4.6 -15.9°
Reaches altitude 10° 23:03:28 10° 251° (WSW) 1,402 3.3 -16.0°
Enters shadow 23:04:26 16° 238° (WSW) 1,107 2.7 -16.0°
